Sylvania, GA

10:04 PM EST on November 20, 2017 (GMT -0500)
Plantation

Weather History for KJYL - August, 2013

Change the Weather History Date:

Wednesday, August 21, 2013

  Actual Average (KSAV) Record (KSAV)
Temperature  
Mean Temperature 82 °F -  
Max Temperature 90 °F 90 °F 101 °F (1902)
Min Temperature 74 °F 72 °F 62 °F (1961)
Cooling Degree Days 17    
Growing Degree Days 32 (Base 50)    
Moisture  
Dew Point 74 °F    
Average Humidity 82    
Maximum Humidity 91    
Minimum Humidity 53    
Precipitation  
Precipitation 0.00 in - - ()
Sea Level Pressure  
Sea Level Pressure 30.18 in    
Wind  
Wind Speed 0 mph (SE)    
Max Wind Speed 9 mph    
Max Gust Speed -    
Visibility 7 miles    
Events Fog , Thunderstorm    
Averages and records for this station are not official NWS values.
T = Trace of Precipitation, MM = Missing Value Source: NWS Daily Summary

Daily Weather History Graph

Daily Weather History Graph

Search for Another Location

Airport or City:

Trip Planner

Search our weather history database for the weather conditions in past years. The results will help you decide how hot, cold, wet, or windy it might be!

Date:

Astronomy

Aug. 21, 2013 Rise Set
Actual Time 6:54 AM EDT 8:04 PM EDT
Civil Twilight 6:28 AM EDT 8:29 PM EDT
Nautical Twilight 5:58 AM EDT 9:00 PM EDT
Astronomical Twilight 5:26 AM EDT 9:31 PM EDT
Moon 8:19 PM EDT 7:27 AM EDT
Length of Visible Light 14h 01m
Length of Day
13h 10m
Full, 100% of the Moon is Illuminated
Aug 21
Full
Aug 28
Last Quarter
Sep 5
New
Sep 12
First Quarter
Sep 19
Full

Hourly Weather History & Observations

Time (EDT) Temp. Heat Index Dew Point Humidity Pressure Visibility Wind Dir Wind Speed Gust Speed Precip Events Conditions
12:15 AM 77.9 °F - 74.7 °F 90% 30.17 in 7.0 mi Calm Calm - N/A   Mostly Cloudy
12:35 AM 77.2 °F - 74.3 °F 91% 30.18 in 7.0 mi Calm Calm - N/A   Scattered Clouds
12:55 AM 77.0 °F - 73.8 °F 90% 30.17 in 7.0 mi Calm Calm - N/A   Clear
1:15 AM 76.6 °F - 73.6 °F 90% 30.17 in 7.0 mi Calm Calm - N/A   Clear
1:35 AM 76.5 °F - 73.4 °F 90% 30.17 in 7.0 mi Calm Calm - N/A   Clear
1:55 AM 76.5 °F - 73.4 °F 90% 30.17 in 7.0 mi Calm Calm - N/A   Clear
2:15 AM 76.3 °F - 73.4 °F 91% 30.17 in 7.0 mi Calm Calm - N/A   Scattered Clouds
2:35 AM 75.9 °F - 73.0 °F 91% 30.17 in 7.0 mi Calm Calm - N/A   Clear
2:55 AM 75.7 °F - 72.9 °F 91% 30.16 in 10.0 mi Calm Calm - N/A   Clear
3:15 AM 75.7 °F - 72.9 °F 91% 30.16 in 7.0 mi Calm Calm - N/A   Scattered Clouds
3:35 AM 75.6 °F - 72.7 °F 91% 30.16 in 7.0 mi Calm Calm - N/A   Mostly Cloudy
3:55 AM 75.4 °F - 72.5 °F 91% 30.15 in 1.5 mi Calm Calm - N/A   Overcast
4:15 AM 75.2 °F - 72.5 °F 91% 30.15 in 1.0 mi Calm Calm - N/A   Overcast
4:35 AM 75.2 °F - 72.3 °F 91% 30.15 in 0.8 mi Calm Calm - N/A   Overcast
4:55 AM 75.0 °F - 72.1 °F 91% 30.14 in 0.8 mi Calm Calm - N/A   Overcast
5:15 AM 74.8 °F - 72.1 °F 91% 30.15 in 0.8 mi Calm Calm - N/A   Overcast
5:35 AM 75.2 °F - 72.5 °F 91% 30.15 in 0.8 mi Calm Calm - N/A   Overcast
5:55 AM 75.2 °F - 72.5 °F 91% 30.16 in 0.5 mi Calm Calm - N/A Fog Fog
6:15 AM 75.2 °F - 72.5 °F 91% 30.17 in 0.2 mi Calm Calm - N/A Fog Fog
6:35 AM 75.2 °F - 72.5 °F 91% 30.17 in 0.2 mi Calm Calm - N/A Fog Fog
6:55 AM 75.2 °F - 72.5 °F 91% 30.18 in 0.2 mi Calm Calm - N/A Fog Fog
7:15 AM 75.4 °F - 72.7 °F 91% 30.19 in 0.2 mi Calm Calm - N/A Fog Fog
7:35 AM 75.4 °F - 72.7 °F 91% 30.19 in 0.2 mi Calm Calm - N/A Fog Fog
7:55 AM 75.6 °F - 72.9 °F 91% 30.20 in 0.2 mi Calm Calm - N/A Fog Fog
8:15 AM 76.1 °F - 73.4 °F 91% 30.21 in 0.2 mi Calm Calm - N/A Fog Fog
8:35 AM 76.1 °F - 73.4 °F 91% 30.21 in 0.2 mi Calm Calm - N/A Fog Fog
8:55 AM 76.3 °F - 73.6 °F 91% 30.21 in 0.2 mi Calm Calm - N/A Fog Fog
9:15 AM 77.2 °F - 74.5 °F 91% 30.22 in 0.2 mi Calm Calm - N/A Fog Fog
9:35 AM 77.4 °F - 74.7 °F 91% 30.22 in 0.5 mi Calm Calm - N/A Fog Fog
9:55 AM 78.1 °F - 75.4 °F 91% 30.23 in 1.5 mi Calm Calm - N/A   Overcast
10:15 AM 79.0 °F - 76.3 °F 91% 30.23 in 7.0 mi Calm Calm - N/A   Overcast
10:35 AM 80.4 °F 86.8 °F 77.4 °F 90% 30.23 in 10.0 mi Calm Calm - N/A   Overcast
10:55 AM 81.5 °F 89.7 °F 77.9 °F 89% 30.23 in 10.0 mi Calm Calm - N/A   Mostly Cloudy
11:15 AM 81.7 °F 89.7 °F 77.4 °F 87% 30.23 in 10.0 mi Calm Calm - N/A   Scattered Clouds
11:35 AM 84.7 °F 94.0 °F 75.9 °F 75% 30.23 in 10.0 mi Calm Calm - N/A   Scattered Clouds
11:55 AM 86.2 °F 95.5 °F 75.2 °F 70% 30.22 in 10.0 mi Calm Calm - N/A Thunderstorm Scattered Clouds
12:15 PM 87.1 °F 95.9 °F 74.7 °F 66% 30.22 in 10.0 mi Calm Calm - N/A   Scattered Clouds
12:35 PM 88.7 °F 96.7 °F 73.2 °F 60% 30.22 in 10.0 mi Calm Calm - N/A   Clear
12:55 PM 88.7 °F 96.2 °F 72.9 °F 59% 30.21 in 10.0 mi Calm Calm - N/A   Clear
1:15 PM 89.6 °F 97.7 °F 73.0 °F 58% 30.20 in 10.0 mi East 4.6 mph - N/A   Scattered Clouds
1:35 PM 89.4 °F 96.8 °F 72.1 °F 57% 30.21 in 10.0 mi Calm Calm - N/A   Mostly Cloudy
1:55 PM 90.3 °F 96.7 °F 71.1 °F 53% 30.19 in 10.0 mi Calm Calm - N/A Thunderstorm Scattered Clouds
2:15 PM 90.7 °F 97.4 °F 71.4 °F 53% 30.19 in 10.0 mi Calm Calm - N/A   Scattered Clouds
2:35 PM 90.7 °F 97.9 °F 72.1 °F 54% 30.18 in 10.0 mi ESE 5.8 mph - N/A   Mostly Cloudy
2:55 PM 88.7 °F 94.3 °F 70.9 °F 55% 30.18 in 10.0 mi ESE 4.6 mph - N/A Thunderstorm Mostly Cloudy
3:15 PM 88.3 °F 95.4 °F 72.1 °F 59% 30.16 in 10.0 mi Calm Calm - N/A   Scattered Clouds
3:35 PM 85.6 °F 93.0 °F 73.4 °F 67% 30.16 in 10.0 mi South 9.2 mph - N/A Thunderstorm Scattered Clouds
3:55 PM 81.7 °F 86.7 °F 72.7 °F 74% 30.18 in 7.0 mi SSW 4.6 mph - N/A Thunderstorm Thunderstorm
4:15 PM 80.6 °F 85.4 °F 73.4 °F 79% 30.17 in 10.0 mi Calm Calm - N/A   Scattered Clouds
4:35 PM 80.1 °F 84.4 °F 73.4 °F 80% 30.17 in 10.0 mi Calm Calm - N/A   Mostly Cloudy
4:55 PM 79.7 °F - 73.6 °F 81% 30.17 in 10.0 mi Calm Calm - N/A   Clear
5:15 PM 79.7 °F - 73.9 °F 82% 30.17 in 10.0 mi Calm Calm - N/A   Clear
5:35 PM 79.9 °F - 74.1 °F 82% 30.16 in 10.0 mi Calm Calm - N/A   Scattered Clouds
5:55 PM 81.5 °F 86.9 °F 73.6 °F 77% 30.14 in 10.0 mi Calm Calm - N/A   Clear
6:15 PM 82.6 °F 87.8 °F 72.5 °F 71% 30.14 in 10.0 mi Calm Calm - N/A   Clear
6:35 PM 83.7 °F 89.4 °F 72.7 °F 69% 30.14 in 10.0 mi Calm Calm - N/A   Clear
6:55 PM 84.4 °F 91.0 °F 73.0 °F 69% 30.14 in 10.0 mi Calm Calm - N/A   Clear
7:15 PM 84.4 °F 90.6 °F 72.9 °F 68% 30.14 in 10.0 mi Calm Calm - N/A   Clear
7:35 PM 82.6 °F 88.8 °F 73.8 °F 75% 30.14 in 10.0 mi Calm Calm - N/A   Clear
7:55 PM 81.0 °F 86.5 °F 74.5 °F 81% 30.15 in 10.0 mi Calm Calm - N/A   Clear
8:15 PM 80.1 °F 84.8 °F 74.7 °F 83% 30.14 in 10.0 mi Calm Calm - N/A   Clear
8:35 PM 79.2 °F - 74.8 °F 87% 30.14 in 10.0 mi Calm Calm - N/A   Clear
8:55 PM 78.3 °F - 74.3 °F 88% 30.15 in 10.0 mi Calm Calm - N/A   Clear
9:15 PM 77.5 °F - 73.9 °F 89% 30.16 in 10.0 mi Calm Calm - N/A   Clear
9:35 PM 77.9 °F - 74.3 °F 89% 30.17 in 10.0 mi Calm Calm - N/A   Clear
9:55 PM 77.2 °F - 73.8 °F 89% 30.17 in 7.0 mi Calm Calm - N/A   Clear
10:15 PM 77.0 °F - 73.8 °F 90% 30.17 in 10.0 mi Calm Calm - N/A   Clear
10:35 PM 76.5 °F - 73.4 °F 90% 30.17 in 7.0 mi Calm Calm - N/A   Clear
10:55 PM 76.3 °F - 73.2 °F 90% 30.17 in 7.0 mi Calm Calm - N/A   Clear
11:15 PM 76.3 °F - 73.4 °F 91% 30.16 in 7.0 mi Calm Calm - N/A   Clear
11:35 PM 76.3 °F - 73.2 °F 90% 30.16 in 7.0 mi Calm Calm - N/A   Clear
11:55 PM 76.3 °F - 73.4 °F 91% 30.17 in 7.0 mi Calm Calm - N/A   Clear